Flock 4g-1

operational
NORAD ID: 62666 Int'l Des: 2025-009 Owner: PLAN Country: US Constellation: planet
LEOCIRCULARRETROGRADESSO

About Flock 4g-1

Description loading...

Live Position

Loading 3D Globe...

Upcoming Passes

Altitude History

Altitude vs Time

uPlot chart will show altitude changes over time

Two-Line Element Set

1 62666U 25009BK 25298.17974166 .00015123 00000-0 63366-3 0 9998
2 62666 97.4238 16.8944 0005830 78.0947 282.0944 15.23605504 43056
Epoch: Oct 25, 2025 • Age: 17 hours

Current Status

Altitude 511.3 km
Velocity 7.61 km/s
Sub-Earth Point -38.55°S, 26.78°E
Launch Date Jan 14, 2025
Age 0.7 years
Type earth observation

Technical Details

Classification Payload
Mass 5.70 kg
Dry Mass 5.70 kg
Total Mass 5.70 kg
Length 0.30 m
Diameter 0.10 m
Span 0.30 m
Shape Box+2 pan
Manufacturer PLAN
Bus Type Cubesat 3U
Phase Status In Orbit
Owner/State PLAN/US

Large Constellations

Loading constellations...